Weather History for Hurlburt Field, FL

Change the Weather History Date:

Monday, November 19, 2012

  Actual Average Record
Temperature  
Mean Temperature 57 °F -  
Max Temperature 71 °F 68 °F 77 °F (2004)
Min Temperature 43 °F 49 °F 27 °F (2008)
Degree Days  
Heating Degree Days 8    
Growing Degree Days 7 (Base 50)    
Moisture  
Dew Point 50 °F    
Average Humidity 69    
Maximum Humidity 96    
Minimum Humidity 49    
Precipitation  
Precipitation 0.00 in - - ()
Sea Level Pressure  
Sea Level Pressure 30.22 in    
Wind  
Wind Speed 6 mph (NNE)    
Max Wind Speed 12 mph    
Max Gust Speed 18 mph    
Visibility 10 miles    
Events Rain    
Averages and records for this station are not official NWS values.
T = Trace of Precipitation, MM = Missing Value Source: NWS Daily Summary

Daily Weather History Graph

Daily Weather History Graph

Search for Another Location

Airport:

Trip Planner

Search our weather history database for the weather conditions in past years. The results will help you decide how hot, cold, wet, or windy it might be!

Date:

Astronomy

Nov. 19, 2012 Rise Set
Actual Time 6:16 AM CST 4:47 PM CST
Civil Twilight 5:50 AM CST 5:13 PM CST
Nautical Twilight 5:21 AM CST 5:42 PM CST
Astronomical Twilight 4:52 AM CST 6:11 PM CST
Moon 11:28 AM CST (11/19) 11:03 PM CST (11/19)
Length of Visible Light 11h 22m
Length of Day
10h 31m
Waxing Crescent, 41% of the Moon is Illuminated
Nov 19
Waxing Crescent
Nov 20
First Quarter
Nov 28
Full
Dec 6
Last Quarter
Dec 13
New

Hourly Weather History & Observations

Time (CST) Temp. Windchill Dew Point Humidity Pressure Visibility Wind Dir Wind Speed Gust Speed Precip Events Conditions
12:55 AM 48.6 °F - 44.8 °F 87% 30.26 in 10.0 mi North 8.1 mph - N/A   Clear
1:55 AM 47.8 °F - 44.2 °F 87% 30.26 in 10.0 mi North 6.9 mph - N/A   Clear
2:55 AM 49.3 °F - 45.5 °F 87% 30.25 in 10.0 mi NE 5.8 mph - N/A   Clear
3:55 AM 47.8 °F - 44.2 °F 87% 30.26 in 10.0 mi NNE 3.5 mph - N/A   Clear
4:55 AM 43.9 °F 41.3 °F 42.3 °F 94% 30.25 in 10.0 mi NE 4.6 mph - N/A   Clear
5:55 AM 44.6 °F 42.2 °F 43.2 °F 95% 30.26 in 10.0 mi North 4.6 mph - N/A   Clear
6:55 AM 45.5 °F 43.2 °F 44.4 °F 96% 30.26 in 10.0 mi NNE 4.6 mph - N/A   Clear
7:55 AM 54.0 °F - 48.0 °F 80% 30.27 in 10.0 mi NE 5.8 mph - N/A   Clear
8:30 AM 57.2 °F - 48.2 °F 72% 30.26 in 10.0 mi ENE 10.4 mph - N/A   Light Drizzle
8:39 AM 59.0 °F - 48.2 °F 67% 30.26 in 10.0 mi ENE 9.2 mph - N/A   Clear
8:55 AM 59.9 °F - 49.1 °F 67% 30.26 in 10.0 mi ENE 8.1 mph - 0.00 in   Clear
9:55 AM 63.7 °F - 51.1 °F 64% 30.26 in 10.0 mi East 3.5 mph - N/A   Clear
10:04 AM 64.4 °F - 51.8 °F 64% 30.26 in 10.0 mi Variable 4.6 mph - N/A Rain Light Rain
10:15 AM 66.2 °F - 51.8 °F 60% 30.26 in 10.0 mi ENE 4.6 mph - N/A   Clear
10:23 AM 66.2 °F - 51.8 °F 60% 30.25 in 10.0 mi North 4.6 mph - N/A   Light Drizzle
10:33 AM 66.2 °F - 51.8 °F 60% 30.25 in 10.0 mi Calm Calm - N/A   Clear
10:40 AM 68.0 °F - 51.8 °F 56% 30.25 in 10.0 mi Calm Calm - N/A Rain Light Rain
10:55 AM 68.2 °F - 52.0 °F 56% 30.25 in 10.0 mi NE 3.5 mph - 0.00 in   Light Drizzle
10:58 AM 68.0 °F - 51.8 °F 56% 30.25 in 10.0 mi Variable 3.5 mph - N/A   Clear
11:04 AM 68.0 °F - 51.8 °F 56% 30.25 in 10.0 mi Variable 4.6 mph - N/A Rain Light Rain
11:18 AM 66.2 °F - 53.6 °F 64% 30.24 in 10.0 mi SSW 3.5 mph - N/A   Clear
11:20 AM 68.0 °F - 53.6 °F 60% 30.24 in 10.0 mi Variable 3.5 mph - N/A Rain Light Rain
11:25 AM 68.0 °F - 53.6 °F 60% 30.24 in 10.0 mi SSW 4.6 mph - N/A   Clear
11:28 AM 69.8 °F - 55.4 °F 60% 30.24 in 10.0 mi SSW 5.8 mph - N/A Rain Light Rain
11:55 AM 68.4 °F - 55.6 °F 64% 30.23 in 10.0 mi SSW 6.9 mph - 0.00 in   Light Drizzle
12:00 PM 68.0 °F - 55.4 °F 64% 30.22 in 10.0 mi SW 6.9 mph - N/A   Partly Cloudy
12:11 PM 68.0 °F - 55.4 °F 64% 30.22 in 10.0 mi SW 6.9 mph - N/A Rain Light Rain
12:22 PM 68.0 °F - 55.4 °F 64% 30.22 in 10.0 mi SW 8.1 mph - N/A   Partly Cloudy
12:55 PM 67.5 °F - 55.6 °F 66% 30.20 in 10.0 mi WSW 10.4 mph - 0.00 in   Clear
1:55 PM 68.4 °F - 56.5 °F 66% 30.18 in 10.0 mi West 5.8 mph - N/A   Clear
2:01 PM 68.0 °F - 57.2 °F 68% 30.18 in 10.0 mi Variable 3.5 mph - N/A   Light Drizzle
2:20 PM 71.6 °F - 51.8 °F 50% 30.17 in 10.0 mi Variable 6.9 mph - N/A   Clear
2:32 PM 71.6 °F - 51.8 °F 50% 30.16 in 10.0 mi North 11.5 mph 18.4 mph N/A   Light Drizzle
2:37 PM 71.6 °F - 51.8 °F 50% 30.17 in 10.0 mi North 6.9 mph 18.4 mph N/A   Clear
2:55 PM 70.9 °F - 51.1 °F 49% 30.17 in 10.0 mi NNW 10.4 mph - 0.00 in   Clear
3:55 PM 68.9 °F - 49.8 °F 51% 30.16 in 10.0 mi North 11.5 mph - N/A   Clear
4:35 PM 64.4 °F - 50.0 °F 59% 30.16 in 10.0 mi NNE 8.1 mph - N/A   Light Drizzle
4:43 PM 64.4 °F - 48.2 °F 56% 30.16 in 10.0 mi NNE 6.9 mph - N/A   Clear
4:55 PM 62.4 °F - 49.1 °F 62% 30.17 in 10.0 mi NNE 5.8 mph - 0.00 in   Clear
4:56 PM 62.6 °F - 48.2 °F 59% 30.17 in 10.0 mi NNE 5.8 mph - N/A Rain Light Rain
5:06 PM 62.6 °F - 48.2 °F 59% 30.17 in 10.0 mi NNE 4.6 mph - N/A   Clear
5:55 PM 57.2 °F - 49.8 °F 76% 30.17 in 10.0 mi NNE 3.5 mph - 0.00 in   Clear
6:55 PM 52.7 °F - 48.7 °F 86% 30.18 in 10.0 mi North 4.6 mph - N/A   Clear
7:55 PM 50.0 °F - 47.7 °F 92% 30.19 in 10.0 mi North 6.9 mph - N/A   Clear
8:55 PM 49.5 °F - 46.8 °F 90% 30.19 in 10.0 mi North 6.9 mph - N/A   Clear
9:55 PM 51.1 °F - 47.1 °F 86% 30.18 in 10.0 mi North 6.9 mph - N/A   Clear
10:55 PM 48.6 °F - 45.5 °F 89% 30.18 in 10.0 mi North 5.8 mph - N/A   Clear
11:55 PM 46.4 °F 43.5 °F 44.4 °F 93% 30.17 in 10.0 mi North 5.8 mph - N/A   Clear